OpenBCM V2.0.3 (Linux)

Packet Radio Mailbox

IZ3LSV

[San Dona' di P. JN]

 Login: GUEST





  
CX2SA  > KEPS     18.07.26 09:48l 315 Lines 14995 Bytes #114 (0) @ AMSAT
BID : ORB26184.1
Read: GUEST
Subj: 2Line Orbital Elements 26184.AMSAT
Path: IZ3LSV<ED1ZAC<CX2SA
Sent: 260710/0024Z @:CX2SA.SAL.URY.SOAM #:1678 [Salto] FBB7.00e $:ORB26184.1
From: CX2SA@CX2SA.SAL.URY.SOAM
To  : KEPS@AMSAT


QST de W1STR

AMSAT Orbital Elements for Amateur Satellites in TLE Format
>From Orbital Analysis Office
New England Sci-Tech STEM Education Center
Natick MA July 03, 2026
To all radio amateurs


These element sets describe the orbits of various satellites
in use by the amateur radio community. For details see:
www.amsat.org/keplerian-elements-formats/

A daily update of element sets is available at:
www.amsat.org/tle/daily-bulletin.txt
or without bulletin text:
www.amsat.org/tle/dailytle.txt


AO-07
1 07530U 74089B   26183.48564858 -.00000043  00000-0  23671-4 0  9992
2 07530 101.9899 196.8917 0012660 101.7841  56.6522 12.53698362362431
UO-11
1 14781U 84021B   26183.72596691  .00001689  00000-0  17723-3 0  9998
2 14781  97.8066 149.1279 0008803 125.8419 234.3618 14.90823999259446
LO-19
1 20442U 90005G   26183.53106191  .00000138  00000-0  65860-4 0  9993
2 20442  98.8845 205.7592 0011988 156.2041 203.9699 14.34127832904592
AO-27
1 22825U 93061C   26183.59287117  .00000133  00000-0  67579-4 0  9993
2 22825  98.6875 251.0004 0009336  59.8657 300.3450 14.30946419709201
FO-29
1 24278U 96046B   26183.46748801 -.00000028  00000-0  56481-5 0  9996
2 24278  98.5226  30.2454 0350788  56.8950 306.5350 13.53274944475234
GO-32
1 25397U 98043D   26183.72856333  .00000062  00000-0  46868-4 0  9991
2 25397  99.0074 176.8795 0001776 134.8948 225.2374 14.24431411453549
ISS
1 25544U 98067A   26182.50817465  .00006185  00000-0  11827-3 0  9997
2 25544  51.6311 229.1989 0004224 255.0896 104.9625 15.49503254573972
NO-44
1 26931U 01043C   26183.45542852  .00000104  00000-0  69838-4 0  9997
2 26931  67.0489 204.7811 0006018 265.5934  94.4481 14.31961164292637
SO-50
1 27607U 02058C   26183.73200521  .00001058  00000-0  14185-3 0  9993
2 27607  64.5520  80.8899 0074883 259.5665  99.6996 14.83079392266767
CO-55
1 27844U 03031E   26182.99996152  .00000303  00000-0  15002-3 0  9998
2 27844  98.6736 191.3725 0010409 137.1021 223.0971 14.24344824193781
RS-22
1 27939U 03042A   26183.82996713  .00001627  00000-0  25860-3 0  9994
2 27939  98.3466   8.6307 0010324 214.1999 202.7774 14.73497109217854
CO-65
1 32785U 08021C   26183.89264118  .00007348  00000-0  46082-3 0  9990
2 32785  97.8286 165.6398 0008120 347.2751  12.8271 15.09606626987562
CO-66
1 32791U 08021J   26183.80114904  .00020103  00000-0  62654-3 0  9992
2 32791  97.7521 182.4499 0001504 186.8338 173.2883 15.33292646989682
RS-30
1 32953U 08025A   26183.87216169  .00000060  00000-0  36410-3 0  9990
2 32953  82.5047 345.6812 0018506 277.6074  82.2904 12.43180358821643
SRMSAT
1 37841U 11058D   26183.56263183  .00000399  00000-0  72828-4 0  9994
2 37841  19.9731 326.4081 0011821  13.5504  59.6043 14.11578853759999
ZACUBE-1
1 39417U 13066B   26183.47106021  .00003928  00000-0  30455-3 0  9993
2 39417  97.8040 145.8855 0042932 196.1986 163.7868 15.01273353683028
Delfi-N3xt
1 39428U 13066N   26183.77141809  .00006514  00000-0  56507-3 0  9991
2 39428  97.8329 104.0691 0074900 153.7949 206.7093 14.95233363676954
GOMX-1
1 39430U 13066Q   26183.64279913  .00001490  00000-0  22853-3 0  9993
2 39430  97.6468  23.1296 0129371  28.4265 332.3919 14.69510522672183
LO-74
1 39440U 13066AA  26183.80423823  .00005629  00000-0  51857-3 0  9997
2 39440  97.8915 132.8497 0056650 337.4394  22.4336 14.93892803679324
AO-73
1 39444U 13066AE  26183.43482957  .00007511  00000-0  46292-3 0  9992
2 39444  97.8285 155.2011 0037288 149.2742 211.0681 15.09675808681965
DTUSAT-2
1 40030U 14033W   26182.96558539  .00008222  00000-0  44130-3 0  9996
2 40030  98.0860 181.6327 0008204 172.2112 187.9248 15.15204645654926
LILACSAT-2
1 40908U 15049K   26183.74942235  .00018467  00000-0  30840-3 0  9990
2 40908  97.4623 221.1860 0007186 180.6292 179.4952 15.51967479598164
Horyu-4
1 41340U 16012D   26182.79199294  .04204222 -38650-5  11151-2 0  9996
2 41340  30.9791 330.1929 0008660 346.1826  13.8606 16.27112331573163
Lapan A3
1 41603U 16040E   26183.79007981  .00004300  00000-0  13626-3 0  9994
2 41603  97.1492 179.4242 0008961 329.2381  30.8336 15.33207386557209
CAS-2T
1 41847U 16066G   26183.68531959  .00001723  00000-0  24772-3 0  9997
2 41847  98.3817 259.2443 0342792  82.6153 281.3850 14.44744917507030
TechnoSat
1 42829U 17042E   26183.67421030  .00003012  00000-0  21541-3 0  9994
2 42829  97.4294 340.7445 0018579  44.9209 315.3517 15.05047398489038
AO-91
1 43017U 17073E   26183.15636973  .00007671  00000-0  33553-3 0  9996
2 43017  97.4681  50.0656 0148185 277.0157  81.4241 15.12917223467651
S-Net D
1 43186U 18014G   26183.70155815  .00005721  00000-0  29427-3 0  9990
2 43186  97.5348  88.3957 0007207 337.1693  22.9219 15.16818309461118
S-Net B
1 43187U 18014H   26183.71331411  .00005594  00000-0  28807-3 0  9999
2 43187  97.5353  88.3942 0007694 331.2014  28.8793 15.16789173461119
S-Net A
1 43188U 18014J   26183.70035021  .00005827  00000-0  29960-3 0  9997
2 43188  97.5363  88.5933 0007587 332.0948  27.9877 15.16826895461115
S-Net C
1 43189U 18014K   26183.71726963  .00005404  00000-0  27839-3 0  9995
2 43189  97.5383  88.6871 0008720 322.3116  37.7505 15.16780921459662
Ten-Koh
1 43677U 18084G   26183.76911551  .00002393  00000-0  18266-3 0  9996
2 43677  98.0738  16.7881 0010567  68.5261 291.7089 15.02993001418506
PO-101
1 43678U 18084H   26183.77447804  .00002463  00000-0  20028-3 0  9990
2 43678  98.1199  20.6631 0013109 121.7765 238.4736 15.00520268418553
QO-100
1 43700U 18090A   26183.74643685  .00000155  00000-0  00000+0 0  9995
2 43700   0.0179  33.5273 0002258 103.7662  77.9945  1.00273165 27834
MinXSS-2
1 43758U 18099A   26183.48255447  .00041673  00000-0  79597-3 0  9994
2 43758  97.4528 260.2256 0007907 199.5373 160.5575 15.47973595416495
AO-95
1 43770U 18099N   26183.60967049  .00011484  00000-0  43514-3 0  9997
2 43770  97.4375 243.8014 0006930 294.3124  65.7391 15.27038658415571
SNUSat 2
1 43782U 18099AA  26183.58670595  .00008765  00000-0  38559-3 0  9995
2 43782  97.4045 236.7351 0009006 234.9023 125.1369 15.22071702415374
SnugLite
1 43784U 18099AC  26183.60537426  .00012016  00000-0  44880-3 0  9993
2 43784  97.3855 237.7359 0002324 197.1791 162.9370 15.27517014415671
ITASat 1
1 43786U 18099AE  26183.36904435  .00008093  00000-0  38656-3 0  9990
2 43786  97.4016 234.5787 0010879 302.6059  57.4125 15.19245229415210
EAGLET 1
1 43790U 18099AJ  26183.59480438  .00004550  00000-0  26073-3 0  9996
2 43790  97.4219 232.8557 0009455 295.5575  64.4678 15.13055374414660
ESEO
1 43792U 18099AL  26183.54626869  .00001146  00000-0  86445-4 0  9991
2 43792  97.3962 220.2773 0010164 283.3873  76.6221 15.04291793414118
JO-97
1 43803U 18099AX  26183.62196426  .00017868  00000-0  54208-3 0  9993
2 43803  97.4118 246.5140 0005651 198.6681 161.4355 15.34152879415996
Suomi 100
1 43804U 18099AY  26183.13169951  .00015147  00000-0  54328-3 0  9994
2 43804  97.4174 243.4719 0009224 218.5665 141.4917 15.28763890415706
ISAT
1 43879U 18111D   26183.55530416  .00109751  00000-0  97091-3 0  9994
2 43879  97.5869 119.9899 0005179 159.7546 200.3921 15.68276951413579
UWE-4
1 43880U 18111E   26183.74326685  .00032995  00000-0  65109-3 0  9998
2 43880  97.5847 112.8616 0004413 254.2449 105.8314 15.47102682413187
Sparrow
1 43881U 18111F   26183.36202675  .00219348  00000-0  11795-2 0  9999
2 43881  97.6097 125.6990 0006092 138.4422 221.7309 15.79599179413764
Prox-1
1 44339U 19036A   26183.65286113  .00014590  00000-0  14106-2 0  9997
2 44339  23.9962  10.9133 0005322 216.1031 143.9110 14.90998960375783
Taurus 1
1 44530U 19059C   26183.73928691  .00005532  00000-0  88418-3 0  9992
2 44530  98.6426 349.5340 0007360 259.1680 100.8697 14.72256710360935
TO-108
1 44881U 19093C   26183.72846063  .00000449  00000-0  56701-4 0  9993
2 44881  97.7530 255.5815 0014587  40.5366 319.6933 14.86542629353729
RS-44
1 44909U 19096E   26183.64139568  .00000006  00000-0 -28969-4 0  9998
2 44909  82.5226 329.4351 0218530 108.1962 254.3062 12.79748909304326
SALSAT
1 46495U 20068K   26183.25417132  .00008637  00000-0  29987-3 0  9991
2 46495  97.8847 187.2381 0008038 243.7769 116.2645 15.30013367317667
CSS (TIANHE-1)
1 48274U 21035A   26183.07469613  .00005862  00000-0  70552-4 0  9996
2 48274  41.4669 231.3605 0008782 197.5526 162.5011 15.61404719295490
CUTE
1 49263U 21088D   26183.73472330  .00354102  55709-4  66311-3 0  9997
2 49263  97.4098 284.6077 0003345 220.9390 139.1638 16.00949625265036
TeikyoSat 4
1 49396U 21102B   26183.69825554  .00002286  00000-0  14603-3 0  9996
2 49396  97.3665 212.5786 0010629 234.8711 125.1523 15.09563110255062
Z-Sat
1 49399U 21102E   26183.88327624  .00004775  00000-0  23473-3 0  9995
2 49399  97.3314 218.7301 0016277 186.0331 174.0710 15.18382503255828
KOSEN 1
1 49402U 21102H   26183.54189514  .00008655  00000-0  32772-3 0  9990
2 49402  97.3170 225.4015 0014792 147.9311 212.2831 15.27052838256368
HO-113
1 50466U 21131B   26183.88211128  .00000507  00000-0  17029-3 0  9994
2 50466  98.4992 276.1871 0005191  61.0870 299.0839 14.41371762237372
SNUGLITE 2
1 52899U 22065F   26183.67857015  .00001114  00000-0  21990-3 0  9998
2 52899  98.2222 328.4831 0006944 345.1162  14.9835 14.64376413213267
UmKA 1 (RS40S)
1 57172U 23091G   26183.75251594  .00006768  00000-0  30755-3 0  9995
2 57172  97.5039 242.3908 0014062  69.5691 290.7053 15.21000770166376
CubeBel-2 (EU11S)
1 57175U 23091K   26183.75613479  .00014010  00000-0  49063-3 0  9993
2 57175  97.5041 247.1152 0010712  66.9125 293.3243 15.29551717166681
RS-38S
1 57189U 23091Z   26183.71494574  .00017337  00000-0  48784-3 0  9991
2 57189  97.5084 253.5156 0006913  27.4614 332.6993 15.36524256167070
